CZ-2D DEB, 44607

Orbit data source: Space-Track

CZ-2D DEB, 44607 is space debris in SSO originally from a launch on Fri, 11 Nov 2016 UTC launched from the Jiuquan Satellite Launch Center, China (JSC). Debris objects in space refer to the collection of defunct objects orbiting the Earth. Examples of debris include non-operational satellites, rocket bodies, and fragments generated from explosions, collisions, or faulty payload assembly.

Loading next visibility...
Identifier
44607, 2016-068G
Orbit
SSO
Country
Flag of CNCN / PRC
Related business
Manufacturer
Unknown
Mission
Spacecraft
Bus & Motor
Unknown
Mass
Unknown
Launch date (UTC)
2016-11-11 (9 years ago)
Launch vehicle
Unknown
Launch site
Jiuquan Satellite Launch Center, China (JSC)
Object type
Payload
Rocket body
Debris
Shape & HBR
Unknown
Radar Cross Section
Small (<0.1 m²)

Expand to show TLE details & history
Last TLE update: 1 week ago

TLE from 1 week ago
0 CZ-2D DEB
1 44607U 16068G   25252.23713953  .00000485  00000-0  31959-3 0  9998
2 44607  98.4832  41.8663 0203996 234.1439 124.0629 13.96418173441613
Epoch: 2025-09-09T05:41Z
TLE epoch observation values (Epoch: 2025-09-09T05:41:28.855Z)
Latitude
0.00001°
Longitude
-32.03473°
Altitude
994.406 km
Speed
7.311 km/s
True Right ascension
02h 47m 27s
True Declination
0° 00' 00"
Sunlit
Object was in full shadow at epoch
Visualization orbit readout
Latitude
Unknown
Longitude
Unknown
Altitude
Unknown
Speed
Unknown
Apparent Right ascension
Unknown
Apparent Declination
Unknown
Sunlit
N/A
Visualization observer readout
Local Sidereal Time
13:58:21
Azimuth
Unknown
Elevation
Unknown
Doppler factor
Unknown
Orbital elements
Apogee altitude
1,051.943 km
Perigee altitude
754.862 km
Semi-major axis
7,281.54 km
Eccentricity
0.0204
Inclination
98.4832°
RAAN
41.8663°
Arg. of periapsis
234.1439°
True anomaly
125.9718°
Mean anomaly
124.0629°
Eccentric anomaly
125.0201°
Mean motion
3.49308 °/min
Orbital period
103.06 mins
BSTAR
0.00031959
Loading maneuver chart data...
Computing Atmospheric mass density...
Loading historical data...
Loading historical data...
Loading historical data...
Loading historical data...
Loading historical data...
Loading historical data...
Loading historical data...

Documentation

Showing up to 5 results
|